KLM912 MPTO-MROC

Flight info

Callsign KLM912
Flight time N/A
Altitude 32000
Route PUDOS DCT ISEBA CUARE4I
Aircraft B738/M-SDE2E3FGHIRWXY/LB1

Departure

Time 2026-05-04 11:48
Airport Tocumen International Airport (MPTO)

Arrival

Time N/A
Airport Juan Santamaría International Airport (MROC)
Time Latitude Longitude Altitude Speed Heading
2026-05-04 11:31 9.06863 -79.38533 46 ft 0 kts 180°
2026-05-04 11:41 9.06888 -79.38535 46 ft 4 kts 160°
2026-05-04 11:42 9.06907 -79.38548 46 ft 4 kts 105°
2026-05-04 11:42 9.06907 -79.38562 46 ft 1 kts 62°
2026-05-04 11:42 9.06905 -79.38565 46 ft 0 kts 62°
2026-05-04 11:44 9.06911 -79.38554 46 ft 4 kts 62°
2026-05-04 11:45 9.06928 -79.38519 46 ft 7 kts 73°
2026-05-04 11:45 9.06910 -79.38458 45 ft 11 kts 119°
2026-05-04 11:45 9.06869 -79.38377 46 ft 15 kts 104°
2026-05-04 11:45 9.06900 -79.38271 46 ft 18 kts 56°
2026-05-04 11:46 9.06995 -79.38183 46 ft 19 kts 31°
2026-05-04 11:46 9.07112 -79.38115 47 ft 19 kts 30°
2026-05-04 11:46 9.07203 -79.38043 47 ft 15 kts 73°
2026-05-04 11:46 9.07170 -79.37950 48 ft 14 kts 119°
2026-05-04 11:47 9.07103 -79.37928 44 ft 11 kts 204°
2026-05-04 11:47 9.07093 -79.37934 47 ft 0 kts 209°
2026-05-04 11:47 9.07048 -79.37960 43 ft 25 kts 209°
2026-05-04 11:47 9.06867 -79.38063 45 ft 65 kts 209°
2026-05-04 11:48 9.06296 -79.38387 44 ft 121 kts 209°
2026-05-04 11:48 9.05425 -79.38886 96 ft 161 kts 210°
2026-05-04 11:48 9.04463 -79.39440 688 ft 161 kts 210°
2026-05-04 11:48 9.03449 -79.40021 1174 ft 173 kts 210°
2026-05-04 11:49 9.02352 -79.40642 1651 ft 188 kts 209°
2026-05-04 11:49 9.01164 -79.41312 2185 ft 203 kts 209°
2026-05-04 11:49 8.99872 -79.42040 2689 ft 221 kts 210°
2026-05-04 11:49 8.98488 -79.42826 3262 ft 236 kts 210°
2026-05-04 11:50 8.97004 -79.43671 3982 ft 248 kts 210°
2026-05-04 11:50 8.95446 -79.44558 4674 ft 267 kts 209°
2026-05-04 11:50 8.93791 -79.45494 5482 ft 277 kts 208°
2026-05-04 11:50 8.92066 -79.46404 6399 ft 282 kts 207°
2026-05-04 11:51 8.90291 -79.47306 7284 ft 288 kts 206°
2026-05-04 11:51 8.88483 -79.48214 8154 ft 292 kts 206°
2026-05-04 11:51 8.86696 -79.49216 8967 ft 297 kts 220°
2026-05-04 11:51 8.85356 -79.50792 9832 ft 299 kts 233°
2026-05-04 11:52 8.84126 -79.52528 10435 ft 311 kts 235°
2026-05-04 11:52 8.82873 -79.54388 10859 ft 328 kts 236°
2026-05-04 11:52 8.81550 -79.56344 11267 ft 345 kts 235°
2026-05-04 11:52 8.80351 -79.58456 11786 ft 356 kts 247°
2026-05-04 11:53 8.79686 -79.60884 12437 ft 362 kts 263°
2026-05-04 11:53 8.79715 -79.63434 13173 ft 366 kts 279°
2026-05-04 11:53 8.80189 -79.65973 13900 ft 370 kts 282°
2026-05-04 11:53 8.80724 -79.68532 14631 ft 374 kts 282°
2026-05-04 11:55 8.84570 -79.87180 19213 ft 399 kts 282°
2026-05-04 11:55 8.85138 -79.89944 19814 ft 402 kts 282°
2026-05-04 11:56 8.85706 -79.92721 20397 ft 405 kts 282°
2026-05-04 11:56 8.86277 -79.95522 20960 ft 408 kts 281°
2026-05-04 11:56 8.86851 -79.98346 21506 ft 411 kts 281°
2026-05-04 11:56 8.87428 -80.01184 22022 ft 414 kts 281°
2026-05-04 11:57 8.88011 -80.04044 22520 ft 417 kts 281°
2026-05-04 11:57 8.88599 -80.06928 23026 ft 419 kts 281°
2026-05-04 11:57 8.89180 -80.09779 23490 ft 421 kts 281°
2026-05-04 11:57 8.89772 -80.12691 23938 ft 423 kts 281°
2026-05-04 11:58 8.90366 -80.15613 24386 ft 425 kts 281°
2026-05-04 11:58 8.90964 -80.18553 24802 ft 428 kts 281°
2026-05-04 11:58 8.91565 -80.21510 25199 ft 431 kts 281°
2026-05-04 11:58 8.92170 -80.24490 25587 ft 434 kts 281°
2026-05-04 11:59 8.92778 -80.27485 25963 ft 436 kts 281°
2026-05-04 11:59 8.93390 -80.30499 26327 ft 439 kts 281°
2026-05-04 11:59 8.94006 -80.33535 26673 ft 442 kts 281°
2026-05-04 11:59 8.94626 -80.36589 27018 ft 444 kts 281°
2026-05-04 12:00 8.95249 -80.39663 27351 ft 447 kts 281°
2026-05-04 12:00 8.95875 -80.42750 27676 ft 449 kts 281°
2026-05-04 12:00 8.96504 -80.45854 28000 ft 452 kts 281°
2026-05-04 12:00 8.97135 -80.48974 28306 ft 454 kts 281°
2026-05-04 12:01 8.97769 -80.52104 28605 ft 456 kts 282°
2026-05-04 12:01 8.98397 -80.55213 28883 ft 458 kts 281°
2026-05-04 12:02 9.02262 -80.74356 30860 ft 462 kts 281°
2026-05-04 12:03 9.02890 -80.77491 31242 ft 461 kts 281°
2026-05-04 12:03 9.03531 -80.80664 31602 ft 460 kts 282°
2026-05-04 12:03 9.04181 -80.83875 31962 ft 460 kts 282°
2026-05-04 12:03 9.04816 -80.87016 31996 ft 464 kts 281°
2026-05-04 12:04 9.06098 -80.93398 31921 ft 458 kts 281°
2026-05-04 12:04 9.07364 -80.99704 31906 ft 458 kts 281°
2026-05-04 12:05 9.08646 -81.06028 31903 ft 459 kts 282°
2026-05-04 12:05 9.10233 -81.12283 31902 ft 458 kts 285°
2026-05-04 12:06 9.11908 -81.18499 31903 ft 457 kts 284°
2026-05-04 12:06 9.13446 -81.24752 31901 ft 458 kts 284°
2026-05-04 12:07 9.15021 -81.31005 31901 ft 458 kts 284°
2026-05-04 12:07 9.16618 -81.37244 31902 ft 458 kts 284°
2026-05-04 12:08 9.18196 -81.43510 31901 ft 459 kts 284°
2026-05-04 12:08 9.19776 -81.49770 31902 ft 458 kts 284°
2026-05-04 12:09 9.21357 -81.56020 31902 ft 459 kts 284°
2026-05-04 12:09 9.22922 -81.62230 31909 ft 457 kts 284°
2026-05-04 12:10 9.24495 -81.68473 31913 ft 458 kts 284°
2026-05-04 12:10 9.26070 -81.74722 31915 ft 458 kts 284°
2026-05-04 12:11 9.27643 -81.80971 31918 ft 458 kts 284°
2026-05-04 12:11 9.29215 -81.87223 31918 ft 458 kts 284°
2026-05-04 12:12 9.30786 -81.93473 31928 ft 458 kts 284°
2026-05-04 12:12 9.32347 -81.99693 31920 ft 458 kts 284°
2026-05-04 12:14 9.38618 -82.24714 31932 ft 458 kts 284°
2026-05-04 12:15 9.40184 -82.30980 31931 ft 458 kts 284°
2026-05-04 12:15 9.41748 -82.37236 31925 ft 458 kts 284°
2026-05-04 12:16 9.43312 -82.43497 31926 ft 458 kts 284°
2026-05-04 12:16 9.44872 -82.49752 31932 ft 458 kts 284°
2026-05-04 12:17 9.46422 -82.55970 31926 ft 458 kts 284°
2026-05-04 12:17 9.47982 -82.62231 31923 ft 458 kts 284°
2026-05-04 12:18 9.49539 -82.68490 31932 ft 458 kts 284°
2026-05-04 12:18 9.51097 -82.74753 31934 ft 458 kts 284°
2026-05-04 12:19 9.52653 -82.81010 31942 ft 458 kts 284°
2026-05-04 12:19 9.54207 -82.87276 31937 ft 459 kts 284°
2026-05-04 12:20 9.54994 -82.90412 31404 ft 459 kts 284°
2026-05-04 12:20 9.55793 -82.93517 30813 ft 452 kts 285°
2026-05-04 12:20 9.56590 -82.96583 30233 ft 448 kts 285°
2026-05-04 12:20 9.57374 -82.99620 29660 ft 444 kts 284°
2026-05-04 12:21 9.58142 -83.02631 29087 ft 439 kts 284°
2026-05-04 12:21 9.58898 -83.05625 28505 ft 437 kts 284°
2026-05-04 12:21 9.59646 -83.08587 27941 ft 432 kts 284°
2026-05-04 12:21 9.60395 -83.11512 27376 ft 426 kts 284°
2026-05-04 12:22 9.61318 -83.14344 26830 ft 421 kts 289°
2026-05-04 12:22 9.62292 -83.17089 26256 ft 417 kts 289°
2026-05-04 12:22 9.63263 -83.19845 25681 ft 413 kts 289°
2026-05-04 12:22 9.64226 -83.22572 25124 ft 409 kts 289°
2026-05-04 12:23 9.65184 -83.25269 24555 ft 405 kts 289°
2026-05-04 12:23 9.66137 -83.27943 23990 ft 401 kts 289°
2026-05-04 12:23 9.67080 -83.30591 23416 ft 397 kts 289°
2026-05-04 12:23 9.68012 -83.33214 22844 ft 394 kts 289°
2026-05-04 12:24 9.68933 -83.35813 22278 ft 390 kts 289°
2026-05-04 12:24 9.69845 -83.38386 21710 ft 387 kts 289°
2026-05-04 12:24 9.70751 -83.40939 21152 ft 383 kts 289°
2026-05-04 12:24 9.71649 -83.43473 20589 ft 380 kts 289°
2026-05-04 12:25 9.72539 -83.45983 20021 ft 377 kts 289°
2026-05-04 12:25 9.73424 -83.48476 19454 ft 374 kts 289°
2026-05-04 12:25 9.74299 -83.50946 18891 ft 370 kts 289°
2026-05-04 12:25 9.74887 -83.53464 18351 ft 365 kts 276°
2026-05-04 12:26 9.74903 -83.56017 17803 ft 360 kts 266°
2026-05-04 12:26 9.74747 -83.58542 17212 ft 358 kts 265°
2026-05-04 12:26 9.74565 -83.61045 16654 ft 354 kts 265°
2026-05-04 12:26 9.74374 -83.63530 16079 ft 353 kts 265°
2026-05-04 12:27 9.74189 -83.66014 15513 ft 353 kts 265°
2026-05-04 12:27 9.74013 -83.68495 14953 ft 352 kts 265°
2026-05-04 12:27 9.73843 -83.70929 14394 ft 350 kts 266°
2026-05-04 12:27 9.73671 -83.73380 13844 ft 347 kts 265°
2026-05-04 12:28 9.73498 -83.75807 13281 ft 344 kts 265°
2026-05-04 12:28 9.73323 -83.78210 12726 ft 340 kts 266°
2026-05-04 12:28 9.73152 -83.80588 12198 ft 336 kts 266°
2026-05-04 12:28 9.73104 -83.82883 12105 ft 318 kts 277°
2026-05-04 12:29 9.73687 -83.84999 11977 ft 309 kts 295°
2026-05-04 12:29 9.74901 -83.86782 11624 ft 307 kts 315°
2026-05-04 12:29 9.76397 -83.88320 11245 ft 306 kts 316°
2026-05-04 12:29 9.77916 -83.89818 10894 ft 303 kts 317°
2026-05-04 12:30 9.79414 -83.91283 10526 ft 296 kts 316°
2026-05-04 12:30 9.80867 -83.92722 10183 ft 289 kts 316°
2026-05-04 12:30 9.82292 -83.94149 9809 ft 287 kts 316°
2026-05-04 12:30 9.83702 -83.95567 9384 ft 284 kts 316°
2026-05-04 12:31 9.85095 -83.96966 8959 ft 280 kts 316°
2026-05-04 12:31 9.86479 -83.98352 8538 ft 278 kts 316°
2026-05-04 12:31 9.87850 -83.99723 8206 ft 273 kts 316°
2026-05-04 12:31 9.89139 -84.01014 8122 ft 254 kts 316°
2026-05-04 12:32 9.90287 -84.02266 8022 ft 233 kts 306°
2026-05-04 12:32 9.92017 -84.05022 7149 ft 222 kts 302°
2026-05-04 12:32 9.92797 -84.06316 6930 ft 209 kts 302°
2026-05-04 12:33 9.93534 -84.07534 6698 ft 198 kts 302°
2026-05-04 12:33 9.94285 -84.08710 6447 ft 200 kts 311°
2026-05-04 12:33 9.95344 -84.09620 6106 ft 198 kts 332°
2026-05-04 12:33 9.96583 -84.10068 5823 ft 181 kts 352°
2026-05-04 12:34 9.97795 -84.10098 5563 ft 172 kts
2026-05-04 12:34 9.98955 -84.10230 5345 ft 168 kts 346°
2026-05-04 12:34 10.00019 -84.10701 5121 ft 167 kts 328°
2026-05-04 12:34 10.00888 -84.11481 4894 ft 168 kts 310°
2026-05-04 12:35 10.01477 -84.12491 4669 ft 166 kts 291°
2026-05-04 12:35 10.01734 -84.13630 4455 ft 166 kts 274°